Location: Home
(42.5358°N, 72.7383°W)
Time: 06:17:48
(UTC-05:00)

S-56A Canister/Altair - Pass Details

Date: 07 December 2021
Orbit: 633 x 2499 km, 38.9° (Epoch: 19 January)

Event Time Altitude Azimuth Distance (km) Brightness Sun altitude
Exits shadow 04:47:52 14° 196° (SSW) 1,919 9.5 -24.9°
Drops below altitude 10° 04:49:12 10° 180° (S) 2,124 9.9 -24.6°
Sets 04:52:08 0° 158° (SSE) 2,937 10.9 -24.1°
